Weather History for KY51 - July, 2013

Change the Weather History Date:

Tuesday, July 16, 2013

  Actual Average (KLSE) Record (KLSE)
Temperature  
Mean Temperature 82 °F 74 °F  
Max Temperature 90 °F 84 °F 101 °F (1931)
Min Temperature 73 °F 64 °F 49 °F (1912)
Degree Days  
Heating Degree Days 0 0  
Month to date heating degree days 0  
Since 1 July heating degree days 0  
Cooling Degree Days 16 9  
Month to date cooling degree days 143  
Year to date cooling degree days 357  
Growing Degree Days 32 (Base 50)    
Moisture  
Dew Point 71 °F    
Average Humidity 73    
Maximum Humidity 97    
Minimum Humidity 49    
Precipitation  
Precipitation 0.00 in 0.15 in 2.50 in (2008)
Month to date precipitation 2.21  
Year to date precipitation 17.62  
Snow  
Snow 0.00 in 0.00 in 0.00 in (2002)
Month to date snowfall 0.0  
Since 1 July snowfall 0.0  
Snow Depth -    
Sea Level Pressure  
Sea Level Pressure 30.28 in    
Wind  
Wind Speed 7 mph (SSW)    
Max Wind Speed 12 mph    
Max Gust Speed 16 mph    
Visibility 10 miles    
Events      
T = Trace of Precipitation, MM = Missing Value Source: NWS Daily Summary

Daily Weather History Graph

Daily Weather History Graph

Search for Another Location

Airport or City:

Trip Planner

Search our weather history database for the weather conditions in past years. The results will help you decide how hot, cold, wet, or windy it might be!

Date:

Astronomy

Jul. 16, 2013 Rise Set
Actual Time 5:37 AM CDT 8:41 PM CDT
Civil Twilight 5:02 AM CDT 9:16 PM CDT
Nautical Twilight 4:18 AM CDT 10:00 PM CDT
Astronomical Twilight 3:25 AM CDT 10:52 PM CDT
Moon 2:19 PM CDT (7/16) 12:12 AM CDT (7/16)
Length of Visible Light 16h 13m
Length of Day
15h 04m
First Quarter, 56% of the Moon is Illuminated
Jul 16
First Quarter
Jul 22
Full
Jul 29
Last Quarter
Aug 6
New
Aug 14
First Quarter

Hourly Weather History & Observations

Time (CDT) Temp. Heat Index Dew Point Humidity Pressure Visibility Wind Dir Wind Speed Gust Speed Precip Events Conditions
12:15 AM 76.5 °F - 70.7 °F 82% 30.26 in 10.0 mi South 5.8 mph - N/A   Clear
12:35 AM 78.1 °F - 70.7 °F 78% 30.26 in 10.0 mi South 5.8 mph - N/A   Clear
12:55 AM 78.1 °F - 70.3 °F 77% 30.27 in 10.0 mi South 8.1 mph - N/A   Clear
1:15 AM 77.5 °F - 70.7 °F 79% 30.27 in 10.0 mi South 8.1 mph - N/A   Clear
1:35 AM 76.8 °F - 71.2 °F 83% 30.27 in 10.0 mi South 6.9 mph - N/A   Clear
1:55 AM 75.7 °F - 71.2 °F 86% 30.27 in 10.0 mi South 4.6 mph - N/A   Clear
2:35 AM 75.6 °F - 71.4 °F 87% 30.27 in 10.0 mi South 6.9 mph - N/A   Clear
2:55 AM 75.2 °F - 71.4 °F 88% 30.27 in 10.0 mi SSE 5.8 mph - N/A   Clear
3:15 AM 74.7 °F - 73.4 °F 96% 30.27 in 7.0 mi South 5.8 mph - N/A   Clear
3:35 AM 74.5 °F - 73.4 °F 96% 30.27 in 7.0 mi SSE 5.8 mph - N/A   Clear
3:55 AM 75.0 °F - 73.4 °F 95% 30.27 in 10.0 mi South 5.8 mph - N/A   Clear
4:15 AM 74.7 °F - 73.4 °F 96% 30.27 in 7.0 mi South 5.8 mph - N/A   Clear
4:35 AM 74.5 °F - 73.4 °F 96% 30.27 in 7.0 mi South 6.9 mph - N/A   Clear
4:55 AM 74.7 °F - 73.2 °F 95% 30.27 in 10.0 mi South 6.9 mph - N/A   Clear
5:15 AM 74.7 °F - 73.4 °F 96% 30.27 in 10.0 mi South 6.9 mph - N/A   Clear
5:35 AM 74.3 °F - 73.2 °F 96% 30.27 in 7.0 mi South 5.8 mph - N/A   Clear
5:55 AM 74.3 °F - 73.0 °F 96% 30.28 in 7.0 mi South 5.8 mph - N/A   Clear
6:15 AM 73.9 °F - 73.0 °F 97% 30.28 in 5.0 mi South 5.8 mph - N/A   Clear
6:35 AM 74.3 °F - 73.4 °F 97% 30.28 in 5.0 mi South 6.9 mph - N/A   Clear
6:55 AM 74.7 °F - 73.6 °F 96% 30.28 in 5.0 mi SSW 5.8 mph - N/A   Clear
7:15 AM 76.1 °F - 74.1 °F 94% 30.28 in 7.0 mi SSW 6.9 mph - N/A   Clear
7:35 AM 77.2 °F - 74.5 °F 91% 30.29 in 10.0 mi SW 6.9 mph - N/A   Clear
7:55 AM 78.3 °F - 73.8 °F 86% 30.29 in 10.0 mi SW 8.1 mph - N/A   Clear
8:15 AM 79.5 °F - 73.0 °F 80% 30.29 in 10.0 mi SW 9.2 mph - N/A   Clear
8:35 AM 80.6 °F 84.9 °F 72.3 °F 76% 30.29 in 10.0 mi SW 6.9 mph - N/A   Clear
8:55 AM 81.5 °F 86.3 °F 72.3 °F 74% 30.30 in 10.0 mi SW 6.9 mph - N/A   Clear
9:15 AM 83.1 °F 88.9 °F 72.7 °F 71% 30.30 in 10.0 mi WSW 5.8 mph - N/A   Scattered Clouds
9:35 AM 82.8 °F 88.2 °F 72.5 °F 71% 30.30 in 10.0 mi West 6.9 mph - N/A   Mostly Cloudy
9:55 AM 82.0 °F 86.5 °F 71.2 °F 70% 30.30 in 10.0 mi West 9.2 mph - N/A   Mostly Cloudy
10:15 AM 83.7 °F 88.6 °F 71.4 °F 66% 30.30 in 10.0 mi WSW 8.1 mph - N/A   Scattered Clouds
10:55 AM 83.3 °F 88.2 °F 71.2 °F 67% 30.30 in 10.0 mi WSW 8.1 mph - N/A   Mostly Cloudy
11:15 AM 84.9 °F 89.7 °F 70.5 °F 62% 30.30 in 10.0 mi SSW 8.1 mph - N/A   Scattered Clouds
11:35 AM 86.0 °F 90.7 °F 70.3 °F 59% 30.30 in 10.0 mi WSW 8.1 mph - N/A   Scattered Clouds
11:55 AM 85.1 °F 89.8 °F 70.5 °F 61% 30.30 in 10.0 mi SW 5.8 mph - N/A   Scattered Clouds
12:15 PM 87.3 °F 92.4 °F 70.3 °F 57% 30.30 in 10.0 mi SW 9.2 mph - N/A   Scattered Clouds
12:35 PM 86.7 °F 91.7 °F 70.2 °F 58% 30.29 in 10.0 mi SSW 9.2 mph - N/A   Scattered Clouds
12:55 PM 87.1 °F 92.4 °F 70.5 °F 58% 30.29 in 10.0 mi SSW 6.9 mph - N/A   Scattered Clouds
1:15 PM 87.4 °F 92.3 °F 70.0 °F 56% 30.29 in 10.0 mi SW 6.9 mph - N/A   Scattered Clouds
1:35 PM 87.8 °F 93.0 °F 70.2 °F 56% 30.29 in 10.0 mi SW 9.2 mph - N/A   Scattered Clouds
1:55 PM 90.0 °F 95.4 °F 70.0 °F 52% 30.28 in 10.0 mi SSW 10.4 mph 16.1 mph N/A   Scattered Clouds
2:15 PM 89.6 °F 94.3 °F 69.1 °F 51% 30.28 in 10.0 mi SW 9.2 mph - N/A   Scattered Clouds
2:35 PM 90.1 °F 94.4 °F 68.4 °F 49% 30.28 in 10.0 mi SSW 9.2 mph 16.1 mph N/A   Scattered Clouds
3:55 PM 89.2 °F 93.2 °F 68.5 °F 50% 30.27 in 10.0 mi SSW 9.2 mph - N/A   Mostly Cloudy
4:15 PM 90.0 °F 94.5 °F 69.1 °F 50% 30.27 in 10.0 mi SSW 11.5 mph - N/A   Scattered Clouds
4:35 PM 89.8 °F 94.6 °F 69.3 °F 51% 30.27 in 10.0 mi SSW 10.4 mph - N/A   Scattered Clouds
4:55 PM 90.0 °F 94.5 °F 69.3 °F 50% 30.27 in 10.0 mi SW 8.1 mph - N/A   Scattered Clouds
5:15 PM 89.6 °F 94.3 °F 69.3 °F 51% 30.26 in 10.0 mi SSW 9.2 mph - N/A   Clear
5:35 PM 89.1 °F 93.7 °F 69.4 °F 52% 30.26 in 10.0 mi SSW 9.2 mph - N/A   Scattered Clouds
5:55 PM 88.3 °F 93.2 °F 69.8 °F 54% 30.25 in 10.0 mi SSW 9.2 mph - N/A   Clear
6:15 PM 88.5 °F 93.5 °F 69.8 °F 54% 30.25 in 10.0 mi SSW 10.4 mph - N/A   Clear
6:35 PM 87.8 °F 92.6 °F 69.8 °F 55% 30.25 in 10.0 mi SSW 10.4 mph - N/A   Clear
6:55 PM 87.1 °F 91.6 °F 69.8 °F 56% 30.25 in 10.0 mi SSW 10.4 mph - N/A   Clear
7:15 PM 86.5 °F 91.0 °F 69.8 °F 57% 30.25 in 10.0 mi SSW 8.1 mph - N/A   Clear
7:35 PM 86.0 °F 91.1 °F 70.5 °F 60% 30.25 in 10.0 mi SSW 6.9 mph - N/A   Clear
7:55 PM 84.6 °F 89.7 °F 71.1 °F 64% 30.26 in 10.0 mi SSW 5.8 mph - N/A   Clear
8:15 PM 83.3 °F 87.9 °F 71.1 °F 66% 30.25 in 10.0 mi SSW 5.8 mph - N/A   Clear
8:35 PM 81.7 °F 85.8 °F 71.1 °F 70% 30.26 in 10.0 mi SSW 5.8 mph - N/A   Clear
8:55 PM 81.0 °F 84.9 °F 71.1 °F 72% 30.26 in 10.0 mi South 4.6 mph - N/A   Clear
9:15 PM 81.5 °F 85.5 °F 70.7 °F 70% 30.27 in 10.0 mi South 3.5 mph - N/A   Clear
9:35 PM 80.8 °F 84.6 °F 70.9 °F 72% 30.28 in 10.0 mi South 4.6 mph - N/A   Clear
9:55 PM 80.6 °F 84.2 °F 70.9 °F 72% 30.28 in 10.0 mi South 4.6 mph - N/A   Clear
10:15 PM 80.1 °F 83.4 °F 70.9 °F 73% 30.28 in 10.0 mi South 5.8 mph - N/A   Clear
10:35 PM 79.7 °F - 71.2 °F 75% 30.28 in 10.0 mi South 5.8 mph - N/A   Clear
10:55 PM 78.4 °F - 71.6 °F 79% 30.29 in 10.0 mi SSW 4.6 mph - N/A   Clear
11:15 PM 78.8 °F - 71.6 °F 78% 30.29 in 10.0 mi SSW 6.9 mph - N/A   Clear
11:35 PM 77.4 °F - 71.6 °F 82% 30.29 in 10.0 mi SSW 5.8 mph - N/A   Clear
11:55 PM 77.4 °F - 71.6 °F 82% 30.30 in 10.0 mi SSW 4.6 mph - N/A   Clear